Regional Weather Roundup
Issued by NWS Cleveland, OH

Home | Current Version | Previous Version | Text Only | Print | Product List | Glossary Off
Versions: 1 2 3 4 5 6 7 8 9 10 11 12 13 14 15 16 17 18 19 20 21 22 23 24 25 26 27 28 29 30 31 32 33 34 35 36 37 38 39 40 41 42 43 44 45 46 47 48 49 50

083
ASUS41 KCLE 210010
RWRCLE
OHIO REGIONAL WEATHER ROUNDUP
NATIONAL WEATHER SERVICE CLEVELAND, OH
800 PM EDT WED SEP 20 2017

NOTE: "FAIR" INDICATES FEW OR NO CLOUDS BELOW 12,000 FEET WITH NO
SIGNIFICANT WEATHER AND/OR OBSTRUCTIONS TO VISIBILITY.

OHZ001>008-015>018-024>027-034-035-043-044-210100-
   NORTHWEST OHIO

CITY           SKY/WX    TMP DP  RH WIND       PRES   REMARKS
DEFIANCE       CLEAR     75  69  81 CALM      29.97S
FINDLAY        PTCLDY    77  65  66 SE3       29.98S
TOLEDO EXPRESS CLEAR     72  69  90 CALM      29.98R
TOLEDO EXEC    CLEAR     74  68  81 E6        29.99S
LIMA           PTCLDY    74  68  81 SE3       30.00S
$$

OHZ009>014-019>023-028>033-038-089-210100-
   NORTHEAST OHIO

CITY           SKY/WX    TMP DP  RH WIND       PRES   REMARKS
CLE-HOPKINS    PTCLDY    77  63  61 NE7       30.03S
CLE-LAKEFRONT  CLEAR     72  67  84 NE7       30.00S
CUY CO. ARPT   PTCLDY    73  64  73 E5        30.03R
LORAIN-ELYRIA  CLEAR     71  62  73 E6        30.02R
ASHTABULA      CLEAR     69  67  93 NE3       30.04S
AKRON-CANTON   CLOUDY    75  64  68 SW5       30.03R
WOOSTER        CLEAR     68  66  93 CALM      30.03R
MANSFIELD      PTCLDY    74  67  78 SE5       30.03S
YOUNGSTOWN     PTCLDY    74  66  76 N6        30.03R
$$

OHZ042-051>053-060>062-070>072-077>081-210100-
  SOUTHWEST OHIO

CITY           SKY/WX    TMP DP  RH WIND       PRES   REMARKS
CINC-COVINGTON PTCLDY    74  70  87 S5        30.01S
CINC-LUNKEN    CLEAR     75  71  87 CALM      30.00S
HAMILTON       CLEAR     72  70  93 CALM      30.00F
DAYTON         PTCLDY    77  67  71 S5        30.02R
WRIGHT-PAT AFB PTCLDY    77  70  78 CALM      30.00S
DAYTON GENERAL CLEAR     75  67  76 CALM      30.00F
WILMINGTON     PTCLDY    75  69  81 SW3       30.02R
$$

OHZ036-037-039>041-045>050-054>059-063>069-073>076-082>088-210100-
  CENTRAL AND SOUTHEAST OHIO

CITY           SKY/WX    TMP DP  RH WIND       PRES   REMARKS
COLUMBUS       MOCLDY    78  65  63 CALM      30.00S
OSU AIRPORT    CLEAR     73  71  93 CALM      30.01R
BOLTON FIELD   PTCLDY    71  70  96 CALM      30.02R
RICKENBACK AFB PTCLDY    75  68  77 E3        30.01R
NEWARK         PTCLDY    72  69  90 CALM      30.01S
MARION         CLEAR     72  64  76 S5        30.01S
LANCASTER      PTCLDY    73  68  84 CALM      30.02S
ZANESVILLE     CLEAR     73  67  81 CALM      30.02R
NEW PHILLY     NOT AVBL
$$




USA.gov is the U.S. government's official web portal to all federal, state and local government web resources and services.